CW9676 Weather Reports


time (UTC)temp
C
wind
direction
speed
KPH
gust
KPH
rain 1hr
cm
rain 24hr
cm
rain mn
cm
humidity
%
barometer
mb
20260506153539 11 225 14.5 29.0 0.00 0.00 0.00 44 1011.7
20260506152542 11 177 14.5 32.2 0.00 0.00 0.00 45 1011.5
20260506151511 11 192 14.5 29.0 0.00 0.03 0.00 45 1011.5
20260506150437 10 202 14.5 27.4 0.00 0.03 0.00 48 1011.5
20260506145445 10 223 16.1 29.0 0.00 0.03 0.00 49 1011.4
20260506144429 10 160 16.1 32.2 0.00 0.03 0.00 49 1011.3
20260506143433 10 233 17.7 32.2 0.00 0.03 0.00 52 1011.4
20260506142410 9 163 16.1 30.6 0.00 0.03 0.00 53 1011.3
20260506141340 9 222 14.5 30.6 0.00 0.03 0.00 55 1011.1
20260506140330 9 225 17.7 27.4 0.00 0.03 0.00 57 1011.2
20260506135346 8 237 14.5 27.4 0.00 0.03 0.00 58 1011.1
20260506134350 8 248 11.3 27.4 0.00 0.03 0.00 59 1011.1
20260506131042 7 199 8.0 16.1 0.00 0.03 0.00 67 1011.0
20260506130017 6 213 6.4 14.5 0.00 0.03 0.00 68 1010.9
20260506125025 6 4 6.4 17.7 0.00 0.03 0.00 68 1010.7
20260506124018 6 240 9.7 17.7 0.00 0.03 0.00 68 1010.6
20260506123026 6 246 8.0 16.1 0.00 0.05 0.00 69 1010.4
20260506122034 6 239 9.7 20.9 0.00 0.05 0.00 68 1010.3
20260506121041 6 229 8.0 20.9 0.00 0.05 0.00 69 1010.1
20260506120038 6 210 8.0 12.9 0.00 0.08 0.00 68 1010.0
20260506115025 7 230 9.7 22.5 0.00 0.08 0.00 67 1009.9
20260506112856 7 219 11.3 30.6 0.00 0.08 0.00 66 1009.7
20260506111832 7 233 14.5 30.6 0.00 0.08 0.00 66 1009.6
20260506110832 7 263 14.5 25.7 0.00 0.08 0.00 66 1009.5
20260506104648 7 218 14.5 27.4 0.00 0.08 0.00 65 1009.5
20260506103633 7 273 16.1 27.4 0.00 0.08 0.00 65 1009.4
20260506102611 7 222 16.1 25.7 0.00 0.08 0.00 65 1009.4
20260506101624 7 225 14.5 30.6 0.00 0.08 0.00 65 1009.2
20260506100649 7 216 16.1 30.6 0.00 0.08 0.00 64 1009.2
20260506095646 7 238 17.7 29.0 0.00 0.08 0.00 64 1009.2
20260506094613 8 186 14.5 25.7 0.00 0.08 0.00 64 1009.2
20260506093625 8 221 14.5 30.6 0.00 0.08 0.00 64 1009.1
20260506092641 8 215 16.1 30.6 0.00 0.08 0.00 63 1009.2
20260506091652 8 243 16.1 27.4 0.00 0.08 0.00 63 1009.1
20260506090640 8 242 14.5 25.7 0.00 0.08 0.00 63 1009.1
20260506085607 8 246 12.9 29.0 0.00 0.08 0.00 62 1009.0
20260506084604 8 231 12.9 29.0 0.00 0.08 0.00 61 1009.0
20260506083559 8 182 9.7 20.9 0.00 0.08 0.00 61 1009.1
20260506082530 8 237 11.3 24.1 0.00 0.08 0.00 62 1009.1
20260506081536 8 250 12.9 24.1 0.00 0.08 0.00 63 1009.1
20260506080534 8 4 9.7 19.3 0.00 0.08 0.00 63 1009.3
20260506073424 8 220 11.3 20.9 0.00 0.08 0.00 61 1009.4
20260506071218 8 215 11.3 22.5 0.00 0.08 0.00 60 1009.2
20260506070215 8 226 11.3 22.5 0.00 0.08 0.00 60 1009.2
20260506061018 10 246 12.9 24.1 0.00 0.08 0.00 57 1008.6
20260506050924 10 234 8.0 22.5 0.00 0.08 0.08 53 1008.3
20260506044814 11 222 12.9 25.7 0.00 0.08 0.08 52 1008.3
20260506043832 11 230 14.5 24.1 0.00 0.08 0.08 52 1008.1
20260506041651 11 220 11.3 22.5 0.00 0.08 0.08 53 1008.0
20260506040636 12 233 11.3 22.5 0.00 0.08 0.08 52 1007.8
20260506035614 12 173 12.9 29.0 0.00 0.08 0.08 51 1007.5
20260506033452 12 212 14.5 25.7 0.00 0.08 0.08 50 1007.1
20260506032436 12 184 12.9 40.2 0.00 0.08 0.08 49 1007.0
20260506030257 13 184 16.1 37.0 0.00 0.08 0.08 47 1006.6
20260506025254 13 4 14.5 30.6 0.00 0.08 0.08 46 1006.2
20260506024242 13 202 16.1 30.6 0.00 0.08 0.08 45 1006.1
20260506023225 13 218 14.5 25.7 0.00 0.08 0.08 44 1006.0
20260506022206 13 186 17.7 33.8 0.00 0.08 0.08 44 1005.8
20260506021223 14 212 17.7 33.8 0.00 0.08 0.08 42 1005.6
20260506020218 14 168 19.3 30.6 0.00 0.08 0.08 40 1005.5
20260506015234 15 212 17.7 32.2 0.00 0.08 0.08 40 1005.2
20260506014236 15 4 17.7 35.4 0.00 0.08 0.08 38 1005.2
20260506013235 15 177 17.7 35.4 0.00 0.08 0.08 38 1005.1
20260506012224 16 4 19.3 33.8 0.00 0.08 0.08 37 1005.0
20260506011209 16 199 17.7 37.0 0.00 0.08 0.08 35 1004.8
20260506010145 15 186 19.3 37.0 0.00 0.08 0.08 35 1004.7
20260506005143 15 177 19.3 38.6 0.00 0.08 0.08 35 1004.7
20260506004147 16 177 22.5 40.2 0.00 0.08 0.08 34 1004.7
20260506001957 18 201 27.4 53.1 0.00 0.08 0.08 30 1004.5
20260506000946 18 179 25.7 43.5 0.00 0.08 0.08 31 1004.5
20260506000000 18 214 25.7 46.7 0.00 0.08 0.08 31 1004.3
20260505235003 17 185 24.1 46.7 0.00 0.08 0.08 31 1004.4
20260505233939 17 177 20.9 35.4 0.00 0.08 0.08 35 1004.4
20260505230728 17 194 20.9 38.6 0.00 0.08 0.08 37 1004.4
20260505225656 16 151 22.5 37.0 0.00 0.08 0.08 43 1004.5
20260505224628 16 163 19.3 37.0 0.00 0.08 0.08 44 1004.6
20260505223633 16 142 19.3 33.8 0.00 0.08 0.08 43 1004.6
20260505222642 16 179 20.9 43.5 0.00 0.08 0.08 44 1004.7
20260505220540 17 152 12.9 27.4 0.00 0.08 0.08 48 1004.8
20260505215600 16 142 16.1 27.4 0.00 0.08 0.08 50 1005.0
20260505213455 16 148 14.5 24.1 0.00 0.08 0.08 57 1005.4
20260505212509 15 117 11.3 24.1 0.00 0.08 0.08 59 1005.6
20260505211523 14 136 12.9 24.1 0.00 0.08 0.08 64 1005.7
20260505210456 13 148 8.0 22.5 0.00 0.08 0.08 68 1005.7
20260505205505 13 139 14.5 22.5 0.00 0.08 0.08 72 1005.9
20260505204504 15 172 12.9 27.4 0.00 0.08 0.08 59 1005.9
20260505203437 15 215 17.7 27.4 0.00 0.08 0.08 53 1005.7
20260505202445 16 148 14.5 38.6 0.00 0.08 0.08 50 1006.0
20260505201427 16 178 19.3 38.6 0.00 0.08 0.08 50 1005.9
20260505200355 16 213 22.5 35.4 0.00 0.08 0.08 52 1005.9
20260505194149 16 221 16.1 27.4 0.00 0.08 0.08 56 1006.1
20260505193131 14 164 17.7 30.6 0.00 0.08 0.08 59 1006.2
20260505192139 15 223 16.1 35.4 0.00 0.08 0.08 58 1006.3
20260505191107 13 193 19.3 35.4 0.00 0.08 0.08 64 1006.4
20260505190126 13 157 19.3 38.6 0.00 0.08 0.08 65 1006.4
20260505185131 13 161 19.3 38.6 0.00 0.08 0.08 65 1006.6
20260505184153 13 154 17.7 32.2 0.00 0.08 0.08 71 1006.8
20260505183138 13 155 16.1 33.8 0.00 0.08 0.08 70 1006.9
20260505182106 12 219 14.5 33.8 0.00 0.08 0.08 70 1006.8
20260505181108 13 4 12.9 24.1 0.00 0.08 0.08 69 1006.8
20260505180046 13 109 16.1 25.7 0.00 0.08 0.08 72 1007.0
20260505175016 12 177 16.1 32.2 0.00 0.08 0.08 73 1006.9
20260505174017 12 200 16.1 32.2 0.00 0.08 0.08 71 1006.8
20260505173008 12 186 16.1 25.7 0.00 0.08 0.08 75 1006.8
20260505171935 12 157 14.5 25.7 0.00 0.08 0.08 74 1006.6
20260505170937 12 4 14.5 24.1 0.00 0.08 0.08 78 1006.8
20260505165919 12 184 8.0 19.3 0.00 0.08 0.08 80 1006.6
20260505164908 11 184 9.7 19.3 0.00 0.08 0.08 84 1006.4
20260505163906 10 215 9.7 17.7 0.00 0.08 0.08 86 1006.6
20260505162924 10 220 8.0 16.1 0.00 0.08 0.08 88 1006.3
20260505161944 9 194 9.7 17.7 0.00 0.08 0.08 88 1006.3
20260505160929 9 156 9.7 17.7 0.00 0.08 0.08 90 1006.1